Lima, OH

10:18 AM EDT on May 26, 2017 (GMT -0400)
Lima Allen County

Weather History for KAOH - June, 2014

Change the Weather History Date:

Sunday, June 8, 2014

  Actual Average (KFDY) Record (KFDY)
Temperature  
Mean Temperature 66 °F -  
Max Temperature 73 °F 78 °F 96 °F (2011)
Min Temperature 60 °F 58 °F 42 °F (1998)
Cooling Degree Days 2    
Growing Degree Days 16 (Base 50)    
Moisture  
Dew Point 58 °F    
Average Humidity 80    
Maximum Humidity 93    
Minimum Humidity 51    
Precipitation  
Precipitation 1.13 in - - ()
Sea Level Pressure  
Sea Level Pressure 29.83 in    
Wind  
Wind Speed 10 mph (NE)    
Max Wind Speed 16 mph    
Max Gust Speed 25 mph    
Visibility 7 miles    
Events Rain    
Averages and records for this station are not official NWS values.
T = Trace of Precipitation, MM = Missing Value Source: NWS Daily Summary

Daily Weather History Graph

Daily Weather History Graph

Search for Another Location

Airport or City:

Trip Planner

Search our weather history database for the weather conditions in past years. The results will help you decide how hot, cold, wet, or windy it might be!

Date:

Astronomy

Jun. 08, 2014 Rise Set
Actual Time 6:04 AM EDT 9:05 PM EDT
Civil Twilight 5:31 AM EDT 9:38 PM EDT
Nautical Twilight 4:49 AM EDT 10:20 PM EDT
Astronomical Twilight 4:00 AM EDT 11:10 PM EDT
Moon 4:21 PM EDT (6/8) 2:59 AM EDT (6/8)
Length of Visible Light 16h 06m
Length of Day
15h 00m
Waxing Gibbous, 77% of the Moon is Illuminated
Jun 8
Waxing Gibbous
Jun 13
Full
Jun 19
Last Quarter
Jun 27
New
Jul 5
First Quarter

Hourly Weather History & Observations

Time (EDT) Temp. Dew Point Humidity Pressure Visibility Wind Dir Wind Speed Gust Speed Precip Events Conditions
12:53 AM 70.0 °F 53.1 °F 55% 29.85 in 10.0 mi SE 8.1 mph - N/A   Clear
1:53 AM 71.1 °F 52.0 °F 51% 29.81 in 10.0 mi ESE 11.5 mph - N/A   Clear
2:53 AM 69.1 °F 52.0 °F 54% 29.79 in 10.0 mi East 6.9 mph - N/A   Scattered Clouds
3:53 AM 66.9 °F 54.0 °F 63% 29.75 in 10.0 mi East 11.5 mph - N/A   Overcast
4:53 AM 66.9 °F 53.1 °F 61% 29.76 in 10.0 mi Variable 3.5 mph - N/A   Overcast
5:04 AM 64.0 °F 57.0 °F 78% 29.80 in 1.8 mi West 5.8 mph - 0.17 in Rain Heavy Rain
5:30 AM 61.0 °F 57.9 °F 90% 29.79 in 2.0 mi Calm Calm - 0.45 in Rain Heavy Rain
5:44 AM 61.0 °F 57.9 °F 90% 29.78 in 7.0 mi ENE 9.2 mph - 0.47 in Rain Light Rain
5:53 AM 61.0 °F 57.9 °F 90% 29.75 in 10.0 mi ENE 11.5 mph - 0.47 in   Overcast
6:25 AM 61.0 °F 57.9 °F 90% 29.77 in 2.5 mi ENE 10.4 mph - 0.16 in Rain Heavy Rain
6:39 AM 61.0 °F 57.9 °F 90% 29.77 in 2.0 mi ENE 12.7 mph - 0.32 in Rain Heavy Rain
6:53 AM 61.0 °F 57.9 °F 90% 29.76 in 3.0 mi NE 6.9 mph - 0.39 in Rain Heavy Rain
7:53 AM 61.0 °F 59.0 °F 93% 29.77 in 6.0 mi NNE 11.5 mph - 0.01 in   Overcast
8:13 AM 61.0 °F 59.0 °F 93% 29.79 in 9.0 mi NNE 15.0 mph - 0.00 in   Overcast
8:53 AM 62.1 °F 59.0 °F 90% 29.79 in 3.0 mi NE 10.4 mph - 0.00 in   Overcast
9:03 AM 62.1 °F 59.0 °F 90% 29.81 in 2.5 mi NE 13.8 mph - N/A   Overcast
9:20 AM 61.0 °F 57.9 °F 90% 29.81 in 3.0 mi NE 12.7 mph - N/A   Overcast
9:36 AM 61.0 °F 57.0 °F 87% 29.82 in 8.0 mi NE 12.7 mph 25.3 mph 0.00 in Rain Light Rain
9:43 AM 61.0 °F 57.0 °F 87% 29.82 in 6.0 mi NE 11.5 mph 24.2 mph 0.00 in Rain Light Rain
9:53 AM 60.1 °F 55.9 °F 86% 29.81 in 10.0 mi NE 12.7 mph - 0.00 in   Overcast
10:25 AM 61.0 °F 57.0 °F 87% 29.80 in 9.0 mi NE 11.5 mph - 0.01 in Rain Light Rain
10:40 AM 61.0 °F 57.9 °F 90% 29.82 in 2.0 mi NNE 10.4 mph - 0.08 in Rain Rain
10:49 AM 60.8 °F 57.2 °F 88% 29.83 in 2.5 mi North 11.5 mph - 0.11 in Rain Rain
10:53 AM 61.0 °F 57.9 °F 90% 29.80 in 2.5 mi NNE 13.8 mph - 0.13 in Rain Rain
11:04 AM 61.0 °F 57.9 °F 90% 29.83 in 3.0 mi North 10.4 mph - 0.02 in Rain Light Rain
11:53 AM 62.1 °F 59.0 °F 90% 29.84 in 3.0 mi North 11.5 mph - 0.06 in Rain Light Rain
12:11 PM 62.1 °F 59.0 °F 90% 29.85 in 2.5 mi North 11.5 mph - 0.02 in Rain Light Rain
12:45 PM 62.1 °F 60.1 °F 93% 29.86 in 3.0 mi North 11.5 mph - 0.06 in Rain Light Rain
12:53 PM 63.0 °F 60.1 °F 90% 29.85 in 4.0 mi North 10.4 mph - 0.06 in Rain Light Rain
1:53 PM 66.9 °F 62.1 °F 84% 29.86 in 10.0 mi NNE 16.1 mph 23.0 mph 0.01 in   Overcast
2:23 PM 69.1 °F 61.0 °F 75% 29.88 in 10.0 mi North 16.1 mph 21.9 mph N/A   Mostly Cloudy
2:53 PM 71.1 °F 60.1 °F 68% 29.86 in 10.0 mi NE 13.8 mph - N/A   Mostly Cloudy
4:53 PM 73.0 °F 57.9 °F 59% 29.89 in 10.0 mi NNE 15.0 mph - N/A   Partly Cloudy
5:53 PM 73.0 °F 57.9 °F 59% 29.90 in 10.0 mi NNE 15.0 mph - N/A   Scattered Clouds
6:53 PM 73.0 °F 57.0 °F 57% 29.91 in 10.0 mi NNE 11.5 mph - N/A   Clear
7:53 PM 71.1 °F 55.9 °F 59% 29.92 in 10.0 mi NNE 6.9 mph - N/A   Clear
8:53 PM 69.1 °F 57.0 °F 65% 29.94 in 10.0 mi Calm Calm - N/A   Clear
9:53 PM 64.9 °F 59.0 °F 81% 29.97 in 10.0 mi Calm Calm - N/A   Clear
10:53 PM 63.0 °F 57.0 °F 81% 29.97 in 10.0 mi ENE 3.5 mph - N/A   Clear
11:53 PM 60.1 °F 57.0 °F 90% 29.98 in 10.0 mi Calm Calm - N/A   Clear